Time,TemperatureF,DewpointF,PressureIn,WindDirection,WindDirectionDegrees,WindSpeedMPH,WindSpeedGustMPH,Humidity,HourlyPrecipIn,Conditions,Clouds,dailyrainin,SoftwareType,DateUTC
2013-08-11 00:01:00,82.0,74.0,30.10,SE,132,9.0,15.0,76,-99.99,,,-99.99,,2013-08-11 04:01:00,
2013-08-11 00:12:00,82.0,74.0,30.10,SE,135,9.0,15.0,76,-99.99,,,-99.99,,2013-08-11 04:12:00,
2013-08-11 00:22:00,82.0,74.0,30.10,SE,135,9.0,15.0,76,-99.99,,,-99.99,,2013-08-11 04:22:00,
2013-08-11 00:43:00,82.0,74.0,30.10,SE,131,9.0,15.0,77,-99.99,,,-99.99,,2013-08-11 04:43:00,
2013-08-11 00:45:00,82.0,74.0,30.11,SE,131,8.0,13.0,76,-99.99,,,-99.99,,2013-08-11 04:45:00,
2013-08-11 01:02:00,82.0,74.0,30.11,SE,133,8.0,14.0,77,-99.99,,,-99.99,,2013-08-11 05:02:00,
2013-08-11 01:25:00,82.0,74.0,30.11,SE,131,8.0,13.0,76,-99.99,,,-99.99,,2013-08-11 05:25:00,
2013-08-11 01:36:00,82.0,74.0,30.11,SE,131,8.0,13.0,76,-99.99,,,-99.99,,2013-08-11 05:36:00,
2013-08-11 01:58:00,82.0,75.0,30.11,SE,131,8.0,12.0,78,-99.99,,,-99.99,,2013-08-11 05:58:00,
2013-08-11 02:04:00,82.0,75.0,30.11,SE,131,8.0,12.0,78,-99.99,,,-99.99,,2013-08-11 06:04:00,
2013-08-11 02:17:00,82.0,75.0,30.11,SE,131,7.0,12.0,77,-99.99,,,-99.99,,2013-08-11 06:17:00,
2013-08-11 02:26:00,82.0,75.0,30.11,SE,131,7.0,12.0,77,-99.99,,,-99.99,,2013-08-11 06:26:00,
2013-08-11 02:48:00,82.0,74.0,30.10,SE,130,6.0,11.0,77,-99.99,,,-99.99,,2013-08-11 06:48:00,
2013-08-11 03:06:00,82.0,74.0,30.10,SE,129,7.0,14.0,76,-99.99,,,-99.99,,2013-08-11 07:06:00,
2013-08-11 03:25:00,82.0,73.0,30.10,SE,130,8.0,13.0,75,-99.99,,,-99.99,,2013-08-11 07:25:00,
2013-08-11 03:45:00,81.0,73.0,30.10,SE,129,7.0,11.0,75,-99.99,,,-99.99,,2013-08-11 07:45:00,
2013-08-11 04:10:00,82.0,74.0,30.10,SE,128,7.0,12.0,76,-99.99,,,-99.99,,2013-08-11 08:10:00,
2013-08-11 04:26:00,82.0,74.0,30.10,SE,131,6.0,11.0,77,-99.99,,,-99.99,,2013-08-11 08:26:00,
2013-08-11 04:48:00,82.0,74.0,30.09,SE,132,6.0,11.0,77,-99.99,,,-99.99,,2013-08-11 08:48:00,
2013-08-11 04:59:00,81.0,73.0,30.10,SE,133,6.0,10.0,76,-99.99,,,-99.99,,2013-08-11 08:59:00,
2013-08-11 05:16:00,81.0,74.0,30.10,SE,131,5.0,9.0,76,-99.99,,,-99.99,,2013-08-11 09:16:00,
2013-08-11 05:35:00,81.0,74.0,30.10,SE,131,5.0,9.0,76,-99.99,,,-99.99,,2013-08-11 09:35:00,
2013-08-11 06:01:00,81.0,74.0,30.09,SE,133,7.0,11.0,79,-99.99,,,-99.99,,2013-08-11 10:01:00,
2013-08-11 06:15:00,82.0,74.0,30.10,SE,124,5.0,9.0,78,-99.99,,,-99.99,,2013-08-11 10:15:00,
2013-08-11 06:29:00,82.0,74.0,30.10,SE,124,5.0,9.0,78,-99.99,,,-99.99,,2013-08-11 10:29:00,
2013-08-11 06:36:00,82.0,74.0,30.10,SE,124,5.0,9.0,78,-99.99,,,-99.99,,2013-08-11 10:36:00,
2013-08-11 06:57:00,81.0,74.0,30.10,ESE,122,5.0,11.0,78,-99.99,,,-99.99,,2013-08-11 10:57:00,
2013-08-11 07:15:00,81.0,74.0,30.11,SE,125,5.0,9.0,79,-99.99,,,-99.99,,2013-08-11 11:15:00,
2013-08-11 07:24:00,81.0,74.0,30.11,SE,125,5.0,9.0,79,-99.99,,,-99.99,,2013-08-11 11:24:00,
2013-08-11 08:06:00,81.0,74.0,30.12,SE,128,5.0,10.0,77,-99.99,,,-99.99,,2013-08-11 12:06:00,
2013-08-11 08:15:00,81.0,74.0,30.12,SE,128,5.0,10.0,77,-99.99,,,-99.99,,2013-08-11 12:15:00,
2013-08-11 08:36:00,82.0,75.0,30.11,ESE,107,5.0,10.0,78,-99.99,,,-99.99,,2013-08-11 12:36:00,
2013-08-11 08:45:00,82.0,75.0,30.11,ESE,107,5.0,10.0,78,-99.99,,,-99.99,,2013-08-11 12:45:00,
2013-08-11 08:56:00,82.0,75.0,30.11,ESE,107,5.0,10.0,78,-99.99,,,-99.99,,2013-08-11 12:56:00,
2013-08-11 09:16:00,83.0,76.0,30.12,ESE,109,5.0,12.0,77,-99.99,,,-99.99,,2013-08-11 13:16:00,
2013-08-11 09:26:00,83.0,76.0,30.12,ESE,109,5.0,12.0,77,-99.99,,,-99.99,,2013-08-11 13:26:00,
2013-08-11 09:48:00,83.0,75.0,30.13,ESE,118,7.0,13.0,76,-99.99,,,-99.99,,2013-08-11 13:48:00,
2013-08-11 10:24:00,84.0,76.0,30.13,ESE,121,8.0,13.0,75,-99.99,,,-99.99,,2013-08-11 14:24:00,
2013-08-11 10:48:00,84.0,75.0,30.13,SE,132,9.0,14.0,74,-99.99,,,-99.99,,2013-08-11 14:48:00,
2013-08-11 10:57:00,85.0,76.0,30.13,ESE,120,7.0,15.0,74,-99.99,,,-99.99,,2013-08-11 14:57:00,
2013-08-11 11:08:00,85.0,76.0,30.13,ESE,120,7.0,15.0,74,-99.99,,,-99.99,,2013-08-11 15:08:00,
2013-08-11 11:15:00,85.0,76.0,30.13,ESE,120,7.0,15.0,74,-99.99,,,-99.99,,2013-08-11 15:15:00,
2013-08-11 11:24:00,85.0,76.0,30.13,ESE,120,7.0,15.0,74,-99.99,,,-99.99,,2013-08-11 15:24:00,
2013-08-11 11:49:00,85.0,76.0,30.13,SE,127,9.0,15.0,73,-99.99,,,-99.99,,2013-08-11 15:49:00,
2013-08-11 12:10:00,84.0,75.0,30.13,SE,142,11.0,17.0,73,-99.99,,,-99.99,,2013-08-11 16:10:00,
2013-08-11 12:30:00,85.0,75.0,30.13,SE,143,9.0,14.0,73,-99.99,,,-99.99,,2013-08-11 16:30:00,
2013-08-11 12:46:00,85.0,75.0,30.13,SE,133,10.0,15.0,72,-99.99,,,-99.99,,2013-08-11 16:46:00,
2013-08-11 13:08:00,85.0,75.0,30.13,SE,143,9.0,14.0,73,-99.99,,,-99.99,,2013-08-11 17:08:00,
2013-08-11 13:14:00,85.0,75.0,30.13,SE,143,9.0,14.0,73,-99.99,,,-99.99,,2013-08-11 17:14:00,
2013-08-11 13:25:00,85.0,75.0,30.13,SE,143,9.0,14.0,73,-99.99,,,-99.99,,2013-08-11 17:25:00,
2013-08-11 13:48:00,85.0,75.0,30.13,SE,127,8.0,12.0,71,-99.99,,,-99.99,,2013-08-11 17:48:00,
2013-08-11 13:58:00,85.0,75.0,30.13,SE,127,8.0,12.0,71,-99.99,,,-99.99,,2013-08-11 17:58:00,
2013-08-11 14:06:00,85.0,74.0,30.13,SE,133,10.0,16.0,69,-99.99,,,-99.99,,2013-08-11 18:06:00,
2013-08-11 14:28:00,85.0,74.0,30.12,SE,128,10.0,18.0,69,-99.99,,,-99.99,,2013-08-11 18:28:00,
2013-08-11 14:47:00,85.0,75.0,30.12,SE,127,8.0,14.0,70,-99.99,,,-99.99,,2013-08-11 18:47:00,
2013-08-11 14:58:00,85.0,75.0,30.12,SE,127,8.0,14.0,70,-99.99,,,-99.99,,2013-08-11 18:58:00,
2013-08-11 15:26:00,85.0,75.0,30.11,ESE,117,8.0,13.0,69,-99.99,,,-99.99,,2013-08-11 19:26:00,
2013-08-11 15:50:00,85.0,75.0,30.10,ESE,110,7.0,11.0,70,-99.99,,,-99.99,,2013-08-11 19:50:00,
2013-08-11 16:00:00,85.0,75.0,30.10,SE,124,8.0,13.0,71,-99.99,,,-99.99,,2013-08-11 20:00:00,
2013-08-11 16:28:00,85.0,74.0,30.09,ESE,107,7.0,13.0,68,-99.99,,,-99.99,,2013-08-11 20:28:00,
2013-08-11 16:38:00,85.0,74.0,30.09,ESE,107,7.0,13.0,68,-99.99,,,-99.99,,2013-08-11 20:38:00,
2013-08-11 16:59:00,85.0,73.0,30.09,ESE,122,9.0,13.0,68,-99.99,,,-99.99,,2013-08-11 20:59:00,
2013-08-11 17:07:00,85.0,73.0,30.09,ESE,122,9.0,13.0,68,-99.99,,,-99.99,,2013-08-11 21:07:00,
2013-08-11 17:27:00,85.0,74.0,30.08,ESE,110,8.0,13.0,69,-99.99,,,-99.99,,2013-08-11 21:27:00,
2013-08-11 17:34:00,85.0,74.0,30.08,ESE,110,8.0,13.0,69,-99.99,,,-99.99,,2013-08-11 21:34:00,
2013-08-11 17:59:00,85.0,74.0,30.07,ESE,102,7.0,13.0,68,-99.99,,,-99.99,,2013-08-11 21:59:00,
2013-08-11 18:16:00,85.0,74.0,30.07,East,92,6.0,11.0,68,-99.99,,,-99.99,,2013-08-11 22:16:00,
2013-08-11 18:25:00,85.0,74.0,30.07,East,92,6.0,11.0,68,-99.99,,,-99.99,,2013-08-11 22:25:00,
2013-08-11 18:46:00,85.0,74.0,30.07,East,85,7.0,13.0,68,-99.99,,,-99.99,,2013-08-11 22:46:00,
2013-08-11 19:29:00,84.0,74.0,30.07,East,93,6.0,12.0,71,-99.99,,,-99.99,,2013-08-11 23:29:00,
2013-08-11 19:48:00,84.0,74.0,30.07,ESE,105,6.0,10.0,71,-99.99,,,-99.99,,2013-08-11 23:48:00,
2013-08-11 20:17:00,83.0,73.0,30.07,East,95,5.0,11.0,72,-99.99,,,-99.99,,2013-08-12 00:17:00,
2013-08-11 20:25:00,83.0,73.0,30.07,East,95,5.0,11.0,72,-99.99,,,-99.99,,2013-08-12 00:25:00,
2013-08-11 20:59:00,83.0,74.0,30.08,East,88,4.0,9.0,74,-99.99,,,-99.99,,2013-08-12 00:59:00,
2013-08-11 21:08:00,83.0,74.0,30.08,East,88,4.0,9.0,74,-99.99,,,-99.99,,2013-08-12 01:08:00,
2013-08-11 21:14:00,82.0,74.0,30.08,East,94,6.0,11.0,74,-99.99,,,-99.99,,2013-08-12 01:14:00,
2013-08-11 21:26:00,82.0,74.0,30.08,East,94,6.0,11.0,74,-99.99,,,-99.99,,2013-08-12 01:26:00,
2013-08-11 21:46:00,82.0,73.0,30.08,East,87,5.0,12.0,73,-99.99,,,-99.99,,2013-08-12 01:46:00,
2013-08-11 22:15:00,82.0,73.0,30.09,ESE,103,5.0,9.0,73,-99.99,,,-99.99,,2013-08-12 02:15:00,
2013-08-11 22:25:00,82.0,73.0,30.09,ESE,103,5.0,9.0,73,-99.99,,,-99.99,,2013-08-12 02:25:00,
2013-08-11 22:47:00,82.0,73.0,30.11,East,92,5.0,10.0,73,-99.99,,,-99.99,,2013-08-12 02:47:00,
2013-08-11 23:15:00,82.0,73.0,30.11,East,95,4.0,11.0,73,-99.99,,,-99.99,,2013-08-12 03:15:00,
2013-08-11 23:25:00,82.0,73.0,30.11,East,95,4.0,11.0,73,-99.99,,,-99.99,,2013-08-12 03:25:00,